Terminal Aerodrome Forecast
Issued by NWS Bismarck, ND

Home | Current Version | Previous Version | Graphics & Text | Print | Product List | Glossary On
Versions: 1 2 3 4 5 6 7 8 9 10 11 12 13 14 15 16
000
FTUS43 KBIS 171100
TAFBIS
TAF
KBIS 171135Z 1712/1812 11010KT P6SM OVC040
     FM171600 14015G22KT P6SM BKN050
     FM180300 12012KT P6SM BKN035=

USA.gov is the U.S. government's official web portal to all federal, state and local government web resources and services.